MST,Max TemperatureF,Mean TemperatureF,Min TemperatureF,Max Dew PointF,MeanDew PointF,Min DewpointF,Max Humidity, Mean Humidity, Min Humidity, Max Sea Level PressureIn, Mean Sea Level PressureIn, Min Sea Level PressureIn, Max VisibilityMiles, Mean VisibilityMiles, Min VisibilityMiles, Max Wind SpeedMPH, Mean Wind SpeedMPH, Max Gust SpeedMPH,PrecipitationIn, CloudCover, Events, WindDirDegrees
2013-2-1,51,35,19,27,18,7,86,57,20,30.35,30.29,30.26,10,10,10,7,1,,0.00,0,,313
2013-2-2,51,37,23,27,20,16,80,57,28,30.42,30.36,30.32,10,10,10,12,2,,0.00,0,,11
2013-2-3,48,39,30,36,28,19,100,71,32,30.33,30.18,30.09,10,9,2,15,3,22,0.02,5,Rain,242
2013-2-4,46,36,24,39,28,19,100,81,37,30.17,30.13,30.10,10,8,0,12,3,,0.00,3,Fog,4
2013-2-5,51,35,19,27,22,18,93,60,28,30.16,30.10,30.04,10,10,10,10,2,,0.00,0,,102
2013-2-6,50,40,30,32,29,25,81,66,43,30.11,30.03,29.99,10,10,10,17,10,24,0.00,1,,202
2013-2-7,50,38,26,32,25,19,93,63,30,30.19,30.12,30.03,10,10,10,10,3,,0.00,2,,187
2013-2-8,48,40,32,25,18,7,69,42,19,30.02,29.86,29.74,10,10,10,36,19,46,0.00,0,,188
2013-2-9,33,28,23,25,20,16,93,77,59,29.94,29.79,29.66,10,6,0,29,18,38,0.02,7,Rain-Snow,214
2013-2-10,30,24,17,23,19,16,93,80,60,29.95,29.92,29.88,10,9,2,18,10,25,0.00,5,Rain-Snow,196
2013-2-11,24,18,12,21,18,10,93,90,80,30.06,29.97,29.92,10,4,0,9,3,,0.13,8,Fog-Rain-Snow,356
2013-2-12,26,14,1,21,12,0,100,83,64,30.21,30.15,30.06,10,9,1,8,2,,0.00,2,,35
2013-2-13,33,19,5,18,11,1,92,70,48,30.22,30.18,30.16,10,10,10,9,3,,0.00,0,,38
2013-2-14,39,27,15,23,18,10,86,64,45,30.27,30.19,30.15,10,10,10,14,7,20,0.00,0,,29
2013-2-15,42,30,17,21,14,9,86,56,25,30.43,30.35,30.28,10,10,10,16,6,25,0.00,0,,36
2013-2-16,53,35,17,21,13,9,80,48,18,30.43,30.32,30.16,10,10,10,10,3,,0.00,0,,25
2013-2-17,50,38,26,16,10,5,64,34,19,30.16,29.99,29.88,10,10,10,26,9,38,0.00,0,,198
2013-2-18,50,36,23,16,12,9,64,38,20,30.14,30.06,30.00,10,10,9,13,7,17,0.00,0,,201
2013-2-19,48,36,24,14,10,7,64,34,19,30.03,29.85,29.68,10,10,10,37,12,48,0.00,0,,193
2013-2-20,33,26,19,27,20,10,93,77,41,29.75,29.64,29.56,10,6,0,26,16,38,0.00,5,Rain-Snow,201
2013-2-21,30,24,19,23,21,16,93,85,74,29.96,29.88,29.75,10,9,1,21,14,25,0.00,6,Rain-Snow,198
2013-2-22,35,26,17,21,17,10,100,74,51,30.12,30.02,29.93,10,10,3,15,7,18,0.00,3,Rain,201
2013-2-23,44,30,15,23,16,9,80,57,38,30.11,29.95,29.80,10,10,10,28,8,34,0.00,0,,196
2013-2-24,28,19,10,23,15,7,100,80,50,30.03,29.87,29.78,10,6,0,18,8,31,0.04,6,Rain-Snow,360
2013-2-25,35,20,6,14,9,1,92,59,30,30.16,30.08,30.01,10,10,10,13,4,,0.00,0,,81
2013-2-26,37,27,17,12,9,0,68,44,25,30.13,30.03,29.95,10,10,10,18,10,23,0.00,0,,329
2013-2-27,37,26,14,10,6,3,68,49,26,30.28,30.22,30.14,10,10,10,13,5,16,0.00,0,,35
2013-2-28,41,28,14,10,7,3,79,44,21,30.42,30.35,30.27,10,10,10,16,6,21,0.00,0,,35